Hatteras, NC

7:59 PM EDT on September 19, 2017 (GMT -0400)
Mitchell

Weather History for KHSE - June, 2012

Change the Weather History Date:

Thursday, June 7, 2012

  Actual Average Record
Temperature  
Mean Temperature 68 °F 73 °F  
Max Temperature 76 °F 79 °F 90 °F (1988)
Min Temperature 59 °F 67 °F 54 °F (2000)
Degree Days  
Heating Degree Days 0 0  
Month to date heating degree days 0 0  
Since 1 June heating degree days 0 0  
Since 1 July heating degree days 1688 2584  
Cooling Degree Days 3 8  
Month to date cooling degree days 53 53  
Year to date cooling degree days 378 196  
Since 1 June cooling degree days 53 53  
Growing Degree Days 17 (Base 50)    
Moisture  
Dew Point 56 °F    
Average Humidity 63    
Maximum Humidity 84    
Minimum Humidity 41    
Precipitation  
Precipitation 0.00 in 0.13 in 2.92 in (1956)
Month to date precipitation 0.90 0.82  
Year to date precipitation 23.68 22.06  
Snow  
Snow 0.00 in - - ()
Month to date snowfall 0.0  
Since 1 July snowfall T  
Snow Depth 0.00 in    
Sea Level Pressure  
Sea Level Pressure 30.01 in    
Wind  
Wind Speed 6 mph (NE)    
Max Wind Speed 14 mph    
Max Gust Speed 22 mph    
Visibility 10 miles    
Events      
T = Trace of Precipitation, MM = Missing Value Source: NWS Daily Summary

Daily Weather History Graph

Daily Weather History Graph

Search for Another Location

Airport or City:

Trip Planner

Search our weather history database for the weather conditions in past years. The results will help you decide how hot, cold, wet, or windy it might be!

Date:

Astronomy

Jun. 07, 2012 Rise Set
Actual Time 5:47 AM EDT 8:15 PM EDT
Civil Twilight 5:18 AM EDT 8:45 PM EDT
Nautical Twilight 4:41 AM EDT 9:21 PM EDT
Astronomical Twilight 4:01 AM EDT 10:01 PM EDT
Moon 11:10 PM EDT (6/7) 9:11 AM EDT (6/7)
Length of Visible Light 15h 27m
Length of Day
14h 27m
Waning Gibbous, 86% of the Moon is Illuminated
Jun 7
Waning Gibbous
Jun 11
Last Quarter
Jun 19
New
Jun 26
First Quarter
Jul 3
Full

Hourly Weather History & Observations

Time (EDT) Temp. Dew Point Humidity Pressure Visibility Wind Dir Wind Speed Gust Speed Precip Events Conditions
12:51 AM 66.0 °F 60.1 °F 81% 29.97 in 10.0 mi Variable 4.6 mph - N/A   Clear
1:51 AM 66.0 °F 60.1 °F 81% 29.97 in 10.0 mi NNE 5.8 mph - N/A   Clear
2:51 AM 66.0 °F 60.1 °F 81% 29.98 in 10.0 mi Variable 4.6 mph - N/A   Clear
3:51 AM 66.9 °F 60.1 °F 79% 29.97 in 10.0 mi NNE 6.9 mph - N/A   Partly Cloudy
4:41 AM 66.2 °F 60.8 °F 83% 29.98 in 10.0 mi NE 6.9 mph - N/A   Mostly Cloudy
4:51 AM 66.9 °F 60.1 °F 79% 29.98 in 10.0 mi NNE 5.8 mph - N/A   Mostly Cloudy
4:58 AM 66.2 °F 60.8 °F 83% 29.98 in 10.0 mi Variable 6.9 mph - N/A   Mostly Cloudy
5:05 AM 66.2 °F 59.0 °F 78% 29.98 in 10.0 mi NNE 5.8 mph - N/A   Scattered Clouds
5:51 AM 66.9 °F 60.1 °F 79% 29.98 in 10.0 mi Variable 5.8 mph - N/A   Partly Cloudy
6:36 AM 68.0 °F 60.8 °F 78% 29.99 in 10.0 mi Variable 5.8 mph - N/A   Mostly Cloudy
6:51 AM 68.0 °F 59.0 °F 73% 29.99 in 10.0 mi NNE 9.2 mph - N/A   Mostly Cloudy
7:10 AM 68.0 °F 57.2 °F 68% 30.00 in 10.0 mi NNE 6.9 mph - N/A   Scattered Clouds
7:51 AM 69.1 °F 55.9 °F 63% 30.01 in 10.0 mi NNE 8.1 mph - N/A   Clear
8:51 AM 70.0 °F 55.9 °F 61% 30.02 in 10.0 mi NNE 10.4 mph 18.4 mph N/A   Clear
9:51 AM 71.1 °F 57.0 °F 61% 30.02 in 10.0 mi NNE 10.4 mph 17.3 mph N/A   Clear
10:51 AM 73.0 °F 55.9 °F 55% 30.03 in 10.0 mi NNE 10.4 mph 18.4 mph N/A   Clear
11:51 AM 73.0 °F 53.1 °F 49% 30.03 in 10.0 mi NNE 8.1 mph 17.3 mph N/A   Clear
12:51 PM 73.9 °F 51.1 °F 45% 30.04 in 10.0 mi Variable 6.9 mph - N/A   Clear
1:51 PM 73.9 °F 48.9 °F 41% 30.03 in 10.0 mi NE 10.4 mph - N/A   Clear
2:51 PM 73.9 °F 48.9 °F 41% 30.02 in 10.0 mi NNE 8.1 mph - N/A   Clear
3:51 PM 73.9 °F 50.0 °F 43% 30.02 in 10.0 mi NNE 9.2 mph - N/A   Clear
4:51 PM 73.9 °F 51.1 °F 45% 30.01 in 10.0 mi ENE 9.2 mph - N/A   Clear
5:51 PM 73.9 °F 53.1 °F 48% 30.01 in 10.0 mi NE 8.1 mph - N/A   Clear
6:51 PM 73.0 °F 53.1 °F 49% 30.01 in 10.0 mi Variable 3.5 mph - N/A   Clear
7:51 PM 70.0 °F 55.0 °F 59% 30.02 in 10.0 mi East 3.5 mph - N/A   Clear
8:51 PM 64.9 °F 55.9 °F 73% 30.03 in 10.0 mi Calm Calm - N/A   Clear
9:51 PM 63.0 °F 55.9 °F 78% 30.04 in 10.0 mi Calm Calm - N/A   Clear
10:51 PM 61.0 °F 55.9 °F 83% 30.04 in 10.0 mi NE 3.5 mph - N/A   Clear
11:51 PM 60.1 °F 55.0 °F 83% 30.03 in 9.0 mi Calm Calm - N/A   Clear